Molonglo, Australia

4:11 AM AEST on June 27, 2017 (GMT +1000)
Molonglo

Weather History for 94926 - August, 2014

Change the Weather History Date:

Monday, August 4, 2014

  Actual Average Record
Temperature  
Mean Temperature 38 °F -  
Max Temperature 55 °F 56 °F - ()
Min Temperature 21 °F 35 °F - ()
Degree Days  
Heating Degree Days 27    
Moisture  
Dew Point 28 °F    
Average Humidity 70    
Maximum Humidity 100    
Minimum Humidity 32    
Precipitation  
Precipitation 0.00 in 0.07 in - ()
Sea Level Pressure  
Sea Level Pressure 30.47 in    
Wind  
Wind Speed 4 mph ()    
Max Wind Speed 15 mph    
Max Gust Speed -    
Visibility 6.2 miles    
Events      
T = Trace of Precipitation, MM = Missing Value Source: Averaged Metar Reports

Daily Weather History Graph

Daily Weather History Graph

Search for Another Location

Airport or City:

Trip Planner

Search our weather history database for the weather conditions in past years. The results will help you decide how hot, cold, wet, or windy it might be!

Date:

Astronomy

Aug. 04, 2014 Rise Set
Actual Time 6:56 AM AEST 5:23 PM AEST
Civil Twilight 6:29 AM AEST 5:49 PM AEST
Nautical Twilight 5:58 AM AEST 6:20 PM AEST
Astronomical Twilight 5:29 AM AEST 6:50 PM AEST
Moon 11:13 AM AEST (8/4) 12:06 AM AEST (8/4)
Length of Visible Light 11h 20m
Length of Day
10h 26m
Waxing Crescent, 51% of the Moon is Illuminated
Aug 4
Waxing Crescent
Aug 11
Full
Aug 17
Last Quarter
Aug 26
New
Sep 2
First Quarter

Hourly Weather History & Observations

Time (AEST) Temp. Windchill Dew Point Humidity Pressure Visibility Wind Dir Wind Speed Gust Speed Precip Events Conditions
12:00 AM 26 °F - 22 °F 79% 30.53 in - North 3.5 mph - -  
12:00 AM 26.6 °F 22.6 °F 21.2 °F 80% 30.48 in 6.2 mi North 3.5 mph - N/A   Unknown
12:30 AM 24.8 °F - 23.0 °F 93% 30.48 in 6.2 mi Calm Calm - N/A   Unknown
1:00 AM 25 °F - 22 °F 83% 30.53 in - North 5.8 mph - -  
1:00 AM 24.8 °F 17.9 °F 21.2 °F 86% 30.48 in 6.2 mi North 5.8 mph - N/A   Unknown
1:30 AM 26.6 °F 21.2 °F 23.0 °F 86% 30.48 in 6.2 mi NNE 4.6 mph - N/A   Unknown
2:00 AM 24.8 °F - 21.2 °F 86% 30.48 in 6.2 mi Calm Calm - N/A   Unknown
2:30 AM 26.6 °F 22.6 °F 23.0 °F 86% 30.48 in 6.2 mi NNE 3.5 mph - N/A   Unknown
3:00 AM 24 °F - 21 °F 83% 30.53 in - Calm Calm - -  
3:00 AM 24.8 °F - 21.2 °F 86% 30.48 in 6.2 mi Calm Calm - N/A   Unknown
3:30 AM 24.8 °F - 21.2 °F 86% 30.48 in 6.2 mi North 1.2 mph - N/A   Unknown
4:00 AM 23 °F - 20 °F 83% 30.51 in - NE 2.3 mph - -  
4:00 AM 23.0 °F - 19.4 °F 86% 30.48 in 6.2 mi NE 2.3 mph - N/A   Unknown
4:30 AM 23.0 °F 17.0 °F 19.4 °F 86% 30.48 in - North 4.6 mph - N/A   Clear
5:00 AM 23.0 °F - 23.0 °F 100% 30.48 in - Calm Calm - N/A   Clear
5:30 AM 23.0 °F - 21.2 °F 93% 30.48 in - Calm Calm - N/A   Clear
6:00 AM 24 °F - 22 °F 89% 30.54 in - Calm Calm - -  
6:00 AM 23.0 °F - 21.2 °F 93% 30.48 in - Calm Calm - N/A   Clear
6:30 AM 23.0 °F - 21.2 °F 93% 30.51 in - Calm Calm - N/A   Clear
7:00 AM 22 °F - 20 °F 89% 30.54 in - Calm Calm - -  
7:00 AM 23.0 °F - 19.4 °F 86% 30.51 in - Calm Calm - N/A   Clear
7:30 AM 24.8 °F - 23.0 °F 93% 30.51 in - Calm Calm - N/A   Clear
8:00 AM 26.6 °F 21.2 °F 24.8 °F 93% 30.51 in - North 4.6 mph - N/A   Clear
8:30 AM 30.2 °F 26.7 °F 26.6 °F 86% 30.51 in - North 3.5 mph - N/A   Clear
9:00 AM 32 °F - 28 °F 79% 30.56 in - North 4.6 mph - -  
9:00 AM 32.0 °F 27.5 °F 28.4 °F 87% 30.51 in - North 4.6 mph - N/A   Clear
9:30 AM 35.6 °F 31.7 °F 32.0 °F 87% 30.51 in - North 4.6 mph - N/A   Clear
10:00 AM 39 °F - 33 °F 72% 30.55 in - WSW 1.2 mph - -  
10:00 AM 39.2 °F - 33.8 °F 81% 30.51 in - WSW 1.2 mph - N/A   Clear
10:30 AM 42.8 °F - 33.8 °F 70% 30.51 in 6.2 mi SW 1.2 mph - N/A   Partly Cloudy
11:00 AM 46.4 °F 45.2 °F 33.8 °F 62% 30.48 in 6.2 mi North 3.5 mph - N/A   Partly Cloudy
11:30 AM 50.0 °F - 35.6 °F 58% 30.48 in 6.2 mi WNW 4.6 mph - N/A   Partly Cloudy
12:00 PM 52 °F - 34 °F 38% 30.51 in - NW 8.1 mph - -  
12:00 PM 51.8 °F - 33.8 °F 50% 30.45 in 6.2 mi NW 8.1 mph - N/A   Partly Cloudy
12:30 PM 53.6 °F - 35.6 °F 51% 30.45 in - NNW 8.1 mph - N/A   Clear
1:00 PM 54 °F - 35 °F 36% 30.47 in - NW 8.1 mph - -  
1:00 PM 53.6 °F - 33.8 °F 47% 30.42 in - NW 8.1 mph - N/A   Clear
1:30 PM 55.4 °F - 35.6 °F 47% 30.42 in - NW 11.5 mph - N/A   Clear
2:00 PM 55.4 °F - 35.6 °F 47% 30.42 in - NNW 13.8 mph - N/A   Clear
2:30 PM 55.4 °F - 33.8 °F 44% 30.39 in - NNW 12.7 mph - N/A   Clear
3:00 PM 55 °F - 34 °F 33% 30.45 in - NW 13.8 mph - -  
3:00 PM 55.4 °F - 33.8 °F 44% 30.39 in - NW 13.8 mph - N/A   Clear
3:30 PM 55.4 °F - 33.8 °F 44% 30.39 in - NNW 12.7 mph - N/A   Clear
4:00 PM 54 °F - 33 °F 32% 30.44 in - North 11.5 mph - -  
4:00 PM 53.6 °F - 33.8 °F 47% 30.39 in - North 11.5 mph - N/A   Clear
4:30 PM 51.8 °F - 32.0 °F 47% 30.39 in - North 15.0 mph - N/A   Clear
5:00 PM 50.0 °F - 32.0 °F 50% 30.42 in - NNW 13.8 mph - N/A   Clear
5:30 PM 46.4 °F 41.5 °F 30.2 °F 53% 30.42 in - North 10.4 mph - N/A   Clear
6:00 PM 45 °F - 30 °F 44% 30.47 in - North 9.2 mph - -  
6:00 PM 44.6 °F 39.7 °F 30.2 °F 57% 30.42 in - North 9.2 mph - N/A   Clear
6:30 PM 44.6 °F 39.7 °F 30.2 °F 57% 30.42 in - NNE 9.2 mph - N/A   Clear
7:00 PM 43 °F - 29 °F 47% 30.48 in - North 8.1 mph - -  
7:00 PM 42.8 °F 38.0 °F 30.2 °F 61% 30.45 in - North 8.1 mph - N/A   Clear
7:30 PM 41.0 °F 35.2 °F 30.2 °F 65% 30.45 in - North 9.2 mph - N/A   Clear
8:00 PM 41.0 °F 35.8 °F 30.2 °F 65% 30.45 in - NNE 8.1 mph - N/A   Clear
8:30 PM 41.0 °F 37.1 °F 30.2 °F 65% 30.45 in - NNE 5.8 mph - N/A   Clear
9:00 PM 40 °F - 31 °F 59% 30.50 in - NNE 5.8 mph - -  
9:00 PM 41.0 °F 37.1 °F 30.2 °F 65% 30.45 in 6.2 mi NNE 5.8 mph - N/A   Unknown
9:30 PM 37.4 °F 32.8 °F 28.4 °F 70% 30.45 in 6.2 mi NNE 5.8 mph - N/A   Unknown
10:00 PM 39 °F - 31 °F 65% 30.49 in - NNE 6.9 mph - -  
10:00 PM 39.2 °F 34.2 °F 32.0 °F 75% 30.45 in 6.2 mi NNE 6.9 mph - N/A   Unknown
10:30 PM 32.0 °F 28.7 °F 26.6 °F 80% 30.45 in 6.2 mi South 3.5 mph - N/A   Unknown
11:00 PM 30.2 °F 24.3 °F 26.6 °F 86% 30.45 in 6.2 mi SE 5.8 mph - N/A   Unknown
11:30 PM 30.2 °F - 26.6 °F 86% 30.45 in 6.2 mi ESE 1.2 mph - N/A   Unknown